x

Gulf Of Maine - 78 Nm East Of Portsmouth, Nh (44005) Wave Buoy

2:50pm - Fri 30th Jan 2015 All times are EST. -5 hours from GMT.

  • Sig Wave height 4.9ft
  • Peak Period 5s
  • Average Period 5s
  • Wind
    13mph, 18mph gusts
  • Sea Temp 44°f
  • Air Temp 40°f
  • Sea Pressure 1004.9mb
  • Gulf Of Maine - 78 Nm East Of Portsmouth, Nh
  • Gulf Of Maine - 78 Nm East Of Portsmouth, Nh

More Historic Weather Station data

Upgrade to MSW Pro to gain access to the past 30 days of data for over 8000 Wavebouys and Weather Stations around the globe.

Join Pro

Comparision Forecast

View Surf forecast
   
Fri 01/30 2:50pm 5ft 5s 5s 13 18 mph 1004.9mb 44f 40f
1:50pm 5ft 6s 5s 20 22 mph 1005.6mb 44f 39f
12:50pm 5ft 6s 5s 22 27 mph 1006.4mb 44f 40f
11:50am 5ft 5s 5s 20 25 mph 1007.3mb 44f 39f
10:50am 5ft 10s 5s 22 27 mph 1008.6mb 44f 39f
9:50am 4.5ft 5s 4s 22 25 mph 1009.4mb 44f 40f
8:50am 3.5ft 10s 5s 20 22 mph 1009.9mb 44f 40f
7:50am 3.5ft 10s 5s 18 22 mph 1010.6mb 44f 40f
6:50am 3ft 10s 4s 16 18 mph 1011.5mb 44f 39f
5:50am 2.5ft 10s 4s 16 20 mph 1012.6mb 44f 38f
4:50am 2.5ft 11s 4s 13 16 mph 1013.4mb 44f 38f
3:50am 2.5ft 11s 5s 13 18 mph 1014.7mb 44f 38f
2:50am 2.5ft 10s 5s 13 16 mph 1015.8mb 44f 37f
1:50am 3ft 10s 5s 16 18 mph 1017mb 44f 37f
12:50am 3ft 11s 6s 16 18 mph 1017.8mb 44f 37f
Thu 01/29 11:50pm 3ft 9s 6s 13 18 mph 1017.8mb 44f 36f
10:50pm 3ft 10s 7s 11 13 mph 1019mb 44f 36f
9:50pm 2.5ft 10s 6s 7 9 mph 1019.5mb 44f 35f
8:50pm 2.5ft 11s 6s 4 9 mph 1020.4mb 44f 34f
7:50pm 2.5ft 11s 6s 4 7 mph 1020.8mb 44f 33f
6:50pm 2.5ft 11s 5s 4 9 mph 1021.4mb 44f 33f
5:50pm 2.5ft 11s 5s 7 11 mph 1021.5mb 44f 32f
4:50pm 3ft 6s  -  4 7 mph 1022mb 44f 32f
3:50pm 3ft 6s 5s 4 9 mph 1022.3mb 44f 31f
2:50pm 3ft 10s 5s 7 9 mph 1022.8mb 44f 31f
1:50pm 3.5ft 11s 5s 7 11 mph 1023.4mb 44f 30f
12:50pm 3.5ft 10s 5s 9 13 mph 1023.9mb 44f 30f
11:50am 3.5ft 10s 5s 11 16 mph 1024.6mb 44f 29f
10:50am 3.5ft 10s 5s 16 18 mph 1025.2mb 44f 29f
9:50am 4ft 10s 5s 11 18 mph 1025.8mb 44f 29f
8:50am 4.5ft 10s 5s 11 16 mph 1025.4mb 44f 28f
7:50am 4.5ft 10s 5s 13 16 mph 1025mb 44f 27f
6:50am 4.5ft 11s 5s 16 20 mph 1024.6mb 44f 27f
5:50am 4.5ft 5s 5s 13 16 mph 1023.9mb 44f 27f
4:50am 4.5ft 5s 5s 16 20 mph 1023.3mb 44f 26f
3:50am 5ft 5s 5s 20 25 mph 1023.4mb 44f 26f
2:50am 5.5ft 5s 5s 20 25 mph 1023.6mb 44f 25f
1:50am 5.5ft 6s 5s 20 27 mph 1022.9mb 44f 25f
12:50am 6ft 11s 6s 18 25 mph 1022.2mb 44f 24f
Wed 01/28 11:50pm 6.5ft 5s 5s 18 22 mph 1021.7mb 44f 24f
10:50pm 7ft 6s 5s 20 25 mph 1020.9mb 44f 24f
9:50pm 7ft 6s 5s 20 25 mph 1019.7mb 44f 26f
8:50pm  -   -   -  22 29 mph 1018.9mb 44f 25f
7:50pm 8ft 6s 5s 22 29 mph 1018.2mb 44f 26f
6:50pm 8.5ft 6s 6s 25 31 mph 1016.7mb 44f 25f
5:50pm 8ft 11s 6s 25 31 mph 1015.5mb 44f 25f
4:50pm  -   -   -  25
mph
- - 25f
3:50pm  -   -   -  22 27 mph 1013.5mb 44f 24f
2:50pm 8.5ft 7s 6s 20 27 mph 1012.3mb 44f 24f
1:50pm  -   -   -  20 27 mph 1011.5mb 44f 23f
12:50pm 10.5ft 8s 6s 22 27 mph 1011.1mb 44f 22f
11:50am 10ft 8s 6s 22 31 mph 1010.9mb 44f 22f
10:50am  -   -   -  25 31 mph 1010.5mb 44f 22f
8:50am 12.5ft 10s 7s 25 31 mph 1008.1mb 44f 23f
7:50am  -   -   -  27
mph
- - 23f
6:50am  -   -   -  29
mph
1004.6mb - 23f
5:50am  -   -   -  29
mph
1003.1mb - 24f
4:50am  -   -   -  34
mph
- - 24f
3:50am  -   -   -  36
mph
- - 24f
2:50am  -   -   -  36
mph
- - -
12:50am  -   -   -  38
mph
995.6mb - 24f
Tue 01/27 9:50pm  -   -   -  43 51 mph 992.3mb 45f 25f
7:50pm  -   -   -  43 54 mph 991.2mb 45f 25f
6:50pm  -   -   -  45 54 mph 990.5mb 45f 26f
5:50pm  -   -   -  47
mph
989.4mb 45f 26f
4:50pm 36ft 13s 10s 47 60 mph 988.5mb 45f 27f
3:50pm 38ft 12s 10s 47 56 mph 988mb 45f 27f
2:50pm  -   -   -  47
mph
- - 27f
11:50am  -   -   -  47
mph
- - -
10:50am  -   -   -  47
mph
- - 26f
8:50am 32ft 11s 9s 45 58 mph 995.7mb 45f 26f
6:50am  -   -   -  45 56 mph - 45f 25f
5:50am 29.5ft 11s 9s 49 63 mph 997.8mb 45f 25f
4:50am 26.5ft 10s 8s 47 58 mph 997.7mb 45f 28f
3:50am 23ft 10s 8s 47 56 mph 1000.8mb 45f 29f
2:50am 19.5ft 9s 7s 47 56 mph 1003.3mb 45f 29f
1:50am 16ft 8s 7s 43 51 mph 1006.1mb 45f 29f
12:50am 15.5ft 8s 7s 40 49 mph 1008.8mb 45f 29f
Mon 01/26 11:50pm 11.5ft 8s 6s 38 47 mph 1010.6mb 45f 29f
10:50pm 9.5ft 7s 5s 36 45 mph 1013mb 45f 31f
9:50pm 9ft 6s 5s 34 43 mph 1015.4mb 45f 31f